Tracking 19245 objects as of 14-Aug-2018
HD Live streaming from Space Station
objects crossing your sky now

BRAZILSAT B2

Track BRAZILSAT B2 now!
BRAZILSAT B2 is classified as:


NORAD ID: 23536
Int'l Code: 1995-016A
Perigee: 36,075.9 km
Apogee: 36,096.0 km
Inclination: 7.7 °
Period: 1,451.1 minutes
Semi major axis: 42456 km
RCS: 7.5458 m2 (large)
Launch date: March 28, 1995
Source: Brazil (BRAZ)
Launch site: FRENCH GUIANA (FRGUI)

24 C-band; several X-band.
aabbcc
Your satellite tracking list
Your tracking list is empty




NASA's NSSDC Master Catalog

Two Line Element Set (TLE):
1 23536U 95016A   18224.92615642 -.00000270 +00000-0 +00000-0 0  9992
2 23536 007.6714 049.0228 0002366 178.5005 186.2252 00.99238370085666
Source of the keplerian elements: AFSPC